Location: Breitenfeld
(46.8500°N, 15.6333°E)
Time: 19:50:26
(UTC+00:00)

SL-8 Rocket - Pass Details

Date: 09 April 2020
Orbit: 957 x 991 km, 82.9° (Epoch: 02 June)

Event Time Altitude Azimuth Distance (km) Brightness Sun altitude
Rises 19:21:56 0° 351° (N) 3,710 7.7 -17.1°
Reaches altitude 10° 19:24:28 10° 353° (N) 2,760 6.9 -17.5°
Maximum altitude 19:30:49 81° 81° (E) 1,009 4.0 -18.4°
Enters shadow 19:35:16 21° 167° (SSE) 2,061 5.3 -19.0°
